Information for O'Hare International Airport

back to airport list

ICAO Code:KORD Country:USA
Airport Name:O'Hare International Airport Is Hub:No
Latitude:41.9786 Longitude:-87.9047
Scheduled Departures:0 Scheduled Arrivals:0
Total Past Departures:1 Total Past Arrivals:1
Pilots Based:0 Current Pilot Location:0
KORD 202051Z 20019G27KT 10SM BKN250 11/01 A2976 RMK AO2 PK WND 22027/2017 SLP080 T01110006 56024


Nearby Destination Airports

ICAO Airport Country GC Distance View
KSUX Sioux Gateway Airport USA 378 NM View Airport Page


+ Show Timetable

Scheduled Departures from KORD

Flight To Destination Days Dep. Time Aircraft Info
No Scheduled Departures!


Scheduled Arrivals to KORD

Flight From Origin Days Arr. Time Aircraft Info
No Scheduled Arrivals!
+ Show Recent Flight Info

Recent Departures from KORD

Flight To Destination Pilot Flighttime Landingrate Aircraft View
ASXC53 CYYT St. John's International Airport Krzysztof H. Blaszkow 03.48.28 -277 ft/m B738 View Report


Recent Arrivals to KORD

Flight From Origin Pilot Flighttime Landingrate Aircraft View
ASXC52 KSUX Sioux Gateway Airport Krzysztof H. Blaszkow 01.26.12 -155 ft/m B738 View Report
+ Show Pilot Information

Pilots based at KORD

Avatar Pilot ID Name Location Rank View Profile
No Pilots are based at this airport!


Pilots currently at KORD

Avatar Pilot ID Name Location Rank On Location since View Profile
Currently there are no pilots at this airport!
- Hide Map